Grants-Milan, NM

1:05 AM MDT on October 22, 2017 (GMT -0600)
Grants-Milan Municipal

Weather History for KGNT - December, 2013

Change the Weather History Date:

Monday, December 23, 2013

  Actual Average Record
Temperature  
Mean Temperature 26 °F -  
Max Temperature 43 °F 43 °F 63 °F (1955)
Min Temperature 10 °F 14 °F -7 °F (1990)
Degree Days  
Heating Degree Days 38    
Moisture  
Dew Point 14 °F    
Average Humidity 67    
Maximum Humidity 90    
Minimum Humidity 32    
Precipitation  
Precipitation 0.00 in - - ()
Sea Level Pressure  
Sea Level Pressure 30.41 in    
Wind  
Wind Speed 6 mph (NNW)    
Max Wind Speed 13 mph    
Max Gust Speed 18 mph    
Visibility 10 miles    
Events      
Averages and records for this station are not official NWS values.
T = Trace of Precipitation, MM = Missing Value Source: NWS Daily Summary

Daily Weather History Graph

Daily Weather History Graph

Search for Another Location

Airport or City:

Trip Planner

Search our weather history database for the weather conditions in past years. The results will help you decide how hot, cold, wet, or windy it might be!

Date:

Astronomy

Dec. 23, 2013 Rise Set
Actual Time 7:17 AM MST 5:04 PM MST
Civil Twilight 6:49 AM MST 5:32 PM MST
Nautical Twilight 6:17 AM MST 6:04 PM MST
Astronomical Twilight 5:46 AM MST 6:35 PM MST
Moon 11:04 PM MST (12/23) 10:55 AM MST (12/23)
Length of Visible Light 10h 43m
Length of Day
9h 47m
Waning Gibbous, 67% of the Moon is Illuminated
Dec 23
Waning Gibbous
Dec 25
Last Quarter
Jan 1
New
Jan 7
First Quarter
Jan 15
Full

Hourly Weather History & Observations

Time (MST) Temp. Windchill Dew Point Humidity Pressure Visibility Wind Dir Wind Speed Gust Speed Precip Events Conditions
12:15 AM 16.2 °F 5.5 °F 12.4 °F 85% 30.31 in 10.0 mi NNW 8.1 mph - N/A   Clear
12:35 AM 16.2 °F 7.6 °F 12.7 °F 86% 30.31 in 10.0 mi North 5.8 mph - N/A   Clear
12:55 AM 17.4 °F 6.2 °F 13.3 °F 84% 30.32 in 10.0 mi NW 9.2 mph - N/A   Clear
1:15 AM 16.5 °F 5.1 °F 12.7 °F 85% 30.32 in 10.0 mi NW 9.2 mph - N/A   Clear
1:35 AM 16.2 °F 4.7 °F 12.7 °F 86% 30.32 in 10.0 mi NW 9.2 mph - N/A   Clear
1:55 AM 15.8 °F 5.1 °F 12.2 °F 86% 30.33 in 10.0 mi NNW 8.1 mph - N/A   Clear
2:15 AM 14.0 °F 3.9 °F 10.9 °F 88% 30.33 in 10.0 mi North 6.9 mph - N/A   Clear
2:35 AM 12.9 °F 2.6 °F 10.0 °F 88% 30.33 in 10.0 mi NNW 6.9 mph - N/A   Clear
2:55 AM 13.6 °F 4.6 °F 10.6 °F 88% 30.34 in 10.0 mi NNW 5.8 mph - N/A   Clear
3:15 AM 11.7 °F 2.3 °F 9.3 °F 90% 30.35 in 10.0 mi NW 5.8 mph - N/A   Clear
3:35 AM 14.0 °F 6.5 °F 10.9 °F 88% 30.35 in 10.0 mi NW 4.6 mph - N/A   Clear
3:55 AM 14.9 °F - 11.5 °F 86% 30.35 in 10.0 mi Calm Calm - N/A   Clear
4:15 AM 12.2 °F - 9.1 °F 88% 30.36 in 10.0 mi Calm Calm - N/A   Clear
4:35 AM 13.3 °F - 10.2 °F 88% 30.36 in 10.0 mi Calm Calm - N/A   Clear
4:55 AM 11.1 °F - 8.8 °F 90% 30.36 in 10.0 mi Calm Calm - N/A   Clear
5:15 AM 13.8 °F - 10.8 °F 88% 30.38 in 10.0 mi Calm Calm - N/A   Clear
5:35 AM 13.3 °F 7.3 °F 9.9 °F 86% 30.38 in 10.0 mi NW 3.5 mph - N/A   Clear
5:55 AM 12.2 °F 6.1 °F 9.0 °F 87% 30.38 in 10.0 mi WNW 3.5 mph - N/A   Clear
6:15 AM 12.9 °F 3.8 °F 9.9 °F 88% 30.40 in 10.0 mi WNW 5.8 mph - N/A   Clear
6:35 AM 14.2 °F 6.7 °F 10.6 °F 86% 30.40 in 10.0 mi NW 4.6 mph - N/A   Clear
6:55 AM 10.8 °F 2.7 °F 7.3 °F 86% 30.41 in 10.0 mi NNW 4.6 mph - N/A   Clear
7:15 AM 10.8 °F 2.7 °F 7.9 °F 88% 30.41 in 10.0 mi NW 4.6 mph - N/A   Clear
7:35 AM 11.1 °F 3.1 °F 8.6 °F 90% 30.42 in 10.0 mi West 4.6 mph - N/A   Clear
7:55 AM 14.0 °F - 10.6 °F 86% 30.43 in 10.0 mi Calm Calm - N/A   Clear
8:15 AM 14.4 °F - 10.4 °F 84% 30.44 in 10.0 mi Calm Calm - N/A   Clear
8:35 AM 18.3 °F - 13.1 °F 80% 30.46 in 10.0 mi Calm Calm - N/A   Clear
8:55 AM 21.7 °F 17.0 °F 15.3 °F 76% 30.46 in 10.0 mi ESE 3.5 mph - N/A   Clear
9:15 AM 24.3 °F - 14.7 °F 67% 30.47 in 10.0 mi Calm Calm - N/A   Clear
9:35 AM 26.4 °F - 15.6 °F 64% 30.47 in 10.0 mi Calm Calm - N/A   Clear
9:55 AM 28.4 °F - 15.4 °F 58% 30.47 in 10.0 mi Calm Calm - N/A   Clear
10:15 AM 30.2 °F 26.7 °F 15.8 °F 55% 30.47 in 10.0 mi NNW 3.5 mph - N/A   Clear
10:35 AM 31.8 °F 27.3 °F 16.3 °F 53% 30.46 in 10.0 mi North 4.6 mph - N/A   Clear
10:55 AM 34.5 °F 28.6 °F 17.2 °F 49% 30.46 in 10.0 mi North 6.9 mph - N/A   Clear
11:15 AM 35.8 °F 31.9 °F 17.6 °F 48% 30.46 in 10.0 mi North 4.6 mph - N/A   Clear
11:35 AM 37.8 °F 31.3 °F 17.8 °F 44% 30.45 in 10.0 mi North 9.2 mph - N/A   Clear
11:55 AM 38.7 °F 32.9 °F 17.8 °F 43% 30.44 in 10.0 mi North 8.1 mph - N/A   Clear
12:15 PM 39.9 °F 33.9 °F 17.8 °F 41% 30.44 in 10.0 mi North 9.2 mph - N/A   Clear
12:35 PM 41.0 °F 33.9 °F 17.2 °F 38% 30.43 in 10.0 mi NNW 12.7 mph 18.4 mph N/A   Clear
12:55 PM 41.7 °F 36.7 °F 16.7 °F 36% 30.42 in 10.0 mi North 8.1 mph - N/A   Clear
1:15 PM 42.6 °F 36.8 °F 16.2 °F 34% 30.41 in 10.0 mi NNW 10.4 mph 17.3 mph N/A   Clear
1:35 PM 42.4 °F 36.1 °F 15.6 °F 34% 30.41 in 10.0 mi NNW 11.5 mph - N/A   Clear
1:55 PM 43.0 °F 40.3 °F 15.6 °F 33% 30.41 in 10.0 mi North 4.6 mph - N/A   Clear
2:15 PM 43.5 °F 37.9 °F 15.6 °F 33% 30.40 in 10.0 mi NNW 10.4 mph - N/A   Clear
2:35 PM 43.5 °F 37.1 °F 15.6 °F 33% 30.41 in 10.0 mi NNW 12.7 mph 17.3 mph N/A   Clear
2:55 PM 43.7 °F 38.1 °F 15.6 °F 32% 30.41 in 10.0 mi NNW 10.4 mph - N/A   Clear
3:15 PM 43.2 °F 38.4 °F 15.4 °F 33% 30.41 in 10.0 mi NNW 8.1 mph - N/A   Clear
3:35 PM 43.0 °F 39.5 °F 15.1 °F 32% 30.41 in 10.0 mi NNW 5.8 mph - N/A   Clear
3:55 PM 42.4 °F 38.1 °F 14.7 °F 33% 30.41 in 10.0 mi North 6.9 mph - N/A   Clear
4:15 PM 41.4 °F 36.2 °F 14.0 °F 33% 30.41 in 10.0 mi North 8.1 mph - N/A   Clear
4:35 PM 39.6 °F 34.0 °F 15.1 °F 37% 30.41 in 10.0 mi NNE 8.1 mph - N/A   Clear
4:55 PM 37.4 °F 33.8 °F 15.3 °F 41% 30.41 in 10.0 mi North 4.6 mph - N/A   Clear
5:15 PM 32.0 °F 26.4 °F 14.5 °F 49% 30.41 in 10.0 mi NW 5.8 mph - N/A   Clear
5:35 PM 29.8 °F 22.2 °F 14.9 °F 54% 30.42 in 10.0 mi NW 8.1 mph - N/A   Clear
5:55 PM 29.3 °F 20.2 °F 15.6 °F 57% 30.43 in 10.0 mi NW 10.4 mph 16.1 mph N/A   Clear
6:15 PM 28.9 °F 19.8 °F 15.8 °F 58% 30.44 in 10.0 mi WNW 10.4 mph 16.1 mph N/A   Clear
6:35 PM 28.4 °F 23.3 °F 15.6 °F 59% 30.44 in 10.0 mi NW 4.6 mph - N/A   Clear
6:55 PM 24.8 °F 19.1 °F 15.1 °F 67% 30.44 in 10.0 mi WNW 4.6 mph - N/A   Clear
7:15 PM 26.1 °F 20.5 °F 16.0 °F 66% 30.44 in 10.0 mi NW 4.6 mph - N/A   Clear
7:35 PM 24.1 °F 18.2 °F 14.9 °F 68% 30.45 in 10.0 mi NNW 4.6 mph - N/A   Clear
7:55 PM 20.7 °F 13.0 °F 14.5 °F 77% 30.46 in 10.0 mi NNW 5.8 mph - N/A   Clear
8:15 PM 21.0 °F 13.4 °F 13.8 °F 74% 30.46 in 10.0 mi NNW 5.8 mph - N/A   Clear
8:35 PM 19.0 °F 11.1 °F 13.1 °F 78% 30.45 in 10.0 mi North 5.8 mph - N/A   Clear
8:55 PM 21.0 °F 16.2 °F 14.9 °F 77% 30.45 in 10.0 mi NW 3.5 mph - N/A   Clear
9:15 PM 18.0 °F 9.8 °F 12.9 °F 81% 30.46 in 10.0 mi NW 5.8 mph - N/A   Clear
9:35 PM 19.4 °F 11.5 °F 14.2 °F 80% 30.46 in 10.0 mi WNW 5.8 mph - N/A   Clear
9:55 PM 21.0 °F 16.2 °F 14.9 °F 77% 30.46 in 10.0 mi WNW 3.5 mph - N/A   Clear
10:15 PM 20.8 °F 16.0 °F 14.7 °F 77% 30.46 in 10.0 mi NW 3.5 mph - N/A   Clear
10:35 PM 18.3 °F 13.1 °F 13.8 °F 83% 30.46 in 10.0 mi WNW 3.5 mph - N/A   Clear
10:55 PM 17.4 °F 9.1 °F 13.1 °F 83% 30.46 in 10.0 mi NW 5.8 mph - N/A   Clear
11:15 PM 18.1 °F 10.0 °F 14.2 °F 84% 30.44 in 10.0 mi NW 5.8 mph - N/A   Clear
11:35 PM 18.9 °F 10.8 °F 14.7 °F 84% 30.44 in 10.0 mi NW 5.8 mph - N/A   Clear
11:55 PM 16.7 °F 11.2 °F 13.8 °F 88% 30.44 in 10.0 mi WNW 3.5 mph - N/A   Clear